Change the Weather History Date:

Thursday, January 12, 2012

  Actual Average Record
Temperature  
Mean Temperature 14 °F 23 °F  
Max Temperature 19 °F 33 °F 61 °F (1987)
Min Temperature 9 °F 13 °F -27 °F (1912)
Degree Days  
Heating Degree Days 51 42  
Month to date heating degree days 372 504  
Since 1 July heating degree days 2538 2983  
Cooling Degree Days 0 0  
Month to date cooling degree days 0 0  
Year to date cooling degree days 0 0  
Moisture  
Dew Point 3 °F    
Average Humidity 66    
Maximum Humidity 73    
Minimum Humidity 58    
Precipitation  
Precipitation T in 0.02 in 0.55 in (1890)
Month to date precipitation 0.02 0.26  
Year to date precipitation 0.02 0.26  
Snow  
Snow T in 0.20 in - ()
Month to date snowfall 0.4 2.3  
Since 1 July snowfall 8.0 11.3  
Snow Depth T in    
Sea Level Pressure  
Sea Level Pressure 30.04 in    
Wind  
Wind Speed 23 mph (NNW)    
Max Wind Speed 36 mph    
Max Gust Speed 45 mph    
Visibility 9 miles    
Events Snow    
T = Trace of Precipitation, MM = Missing Value Source: NWS Daily Summary

Daily Weather History Graph

Daily Weather History Graph

Search for Another Location

Airport or City:

Trip Planner

Search our weather history database for the weather conditions in past years. The results will help you decide how hot, cold, wet, or windy it might be!

Date:

Astronomy

Jan. 12, 2012 Rise Set
Actual Time 7:48 AM CST 5:15 PM CST
Civil Twilight 7:17 AM CST 5:46 PM CST
Nautical Twilight 6:43 AM CST 6:20 PM CST
Astronomical Twilight 6:10 AM CST 6:53 PM CST
Moon 9:25 PM CST (1/12) 9:30 AM CST (1/12)
Length of Visible Light 10h 28m
Length of Day
9h 27m
Waning Gibbous, 87% of the Moon is Illuminated
Jan 12
Waning Gibbous
Jan 16
Last Quarter
Jan 23
New
Jan 30
First Quarter
Feb 7
Full

Hourly Weather History & Observations

Time (CST) Temp. Windchill Dew Point Humidity Pressure Visibility Wind Dir Wind Speed Gust Speed Precip Events Conditions
12:52 AM 18.0 °F -0.2 °F 7.0 °F 62% 30.03 in 10.0 mi NNW 25.3 mph 29.9 mph 0.00 in   Overcast
1:52 AM 16.0 °F -2.8 °F 5.0 °F 62% 30.04 in 5.0 mi NNW 25.3 mph 38.0 mph 0.00 in Snow Light Snow
2:52 AM 14.0 °F -6.2 °F 1.9 °F 59% 30.05 in 6.0 mi NNW 27.6 mph 42.6 mph 0.00 in Snow Light Snow
3:09 AM 12.2 °F -9.6 °F 1.4 °F 62% 30.01 in 7.0 mi NNW 31.1 mph 41.4 mph 0.00 in   Mostly Cloudy
3:52 AM 12.0 °F -8.8 °F 1.0 °F 61% 30.05 in 10.0 mi NNW 27.6 mph 39.1 mph 0.00 in   Scattered Clouds
4:52 AM 10.9 °F -10.6 °F -0.9 °F 59% 30.05 in 9.0 mi NNW 28.8 mph 41.4 mph N/A   Partly Cloudy
5:52 AM 10.0 °F -10.4 °F -0.9 °F 61% 30.05 in 10.0 mi NNW 24.2 mph 34.5 mph N/A   Partly Cloudy
6:52 AM 9.0 °F -13.0 °F -2.0 °F 61% 30.05 in 9.0 mi NNW 27.6 mph 35.7 mph N/A   Partly Cloudy
7:12 AM 8.6 °F -13.1 °F -2.2 °F 62% 30.00 in 9.0 mi NNW 26.5 mph 39.1 mph N/A   Scattered Clouds
7:52 AM 9.0 °F -13.3 °F -2.0 °F 61% 30.04 in 10.0 mi NNW 28.8 mph 36.8 mph N/A   Scattered Clouds
8:52 AM 10.4 °F -11.0 °F -0.4 °F 62% 30.00 in 9.0 mi NNW 27.6 mph 36.8 mph N/A   Mostly Cloudy
9:52 AM 12.0 °F -6.9 °F 1.9 °F 64% 30.04 in 10.0 mi NNW 21.9 mph 26.5 mph N/A   Overcast
10:52 AM 14.0 °F -5.5 °F 3.9 °F 64% 30.04 in 10.0 mi NW 25.3 mph 29.9 mph N/A   Overcast
11:52 AM 15.1 °F -4.0 °F 3.9 °F 61% 30.02 in 5.0 mi NNW 25.3 mph 33.4 mph 0.00 in Snow Light Snow
12:52 PM 15.1 °F -4.0 °F 5.0 °F 64% 30.00 in 7.0 mi NW 25.3 mph 34.5 mph 0.00 in Snow Light Snow
1:15 PM 15.8 °F -4.4 °F 3.2 °F 58% 29.95 in 7.0 mi NW 29.9 mph 36.8 mph 0.00 in Snow Light Snow
1:52 PM 15.1 °F -4.4 °F 5.0 °F 64% 30.00 in 7.0 mi NW 26.5 mph 33.4 mph 0.00 in Snow Light Snow
2:52 PM 15.1 °F -3.7 °F 3.0 °F 59% 30.01 in 10.0 mi NW 24.2 mph 33.4 mph 0.00 in   Overcast
3:52 PM 15.1 °F -4.0 °F 3.0 °F 59% 30.03 in 9.0 mi NNW 25.3 mph 33.4 mph 0.00 in Snow Light Snow
4:52 PM 14.0 °F -4.7 °F 3.9 °F 64% 30.04 in 9.0 mi NNW 23.0 mph 29.9 mph 0.00 in Snow Light Snow
5:52 PM 14.0 °F -2.5 °F 5.0 °F 67% 30.05 in 9.0 mi NW 17.3 mph - 0.00 in Snow Light Snow
6:52 PM 15.1 °F -2.9 °F 6.1 °F 68% 30.06 in 9.0 mi NNW 21.9 mph 31.1 mph 0.00 in Snow Light Snow
7:52 PM 14.0 °F -2.5 °F 5.0 °F 67% 30.01 in 10.0 mi NW 17.3 mph 28.8 mph N/A   Overcast
8:47 PM 12.2 °F -5.8 °F 5.0 °F 73% 30.02 in 10.0 mi NNW 19.6 mph 32.2 mph N/A   Partly Cloudy
8:52 PM 12.0 °F -6.5 °F 3.9 °F 70% 30.08 in 10.0 mi NNW 20.7 mph 32.2 mph N/A   Partly Cloudy
9:52 PM 12.0 °F -6.0 °F 3.0 °F 67% 30.08 in 10.0 mi NNW 19.6 mph - N/A   Clear
10:52 PM 10.9 °F -4.1 °F 3.0 °F 70% 30.09 in 10.0 mi NNW 12.7 mph 20.7 mph N/A   Clear
11:52 PM 10.9 °F -4.1 °F 1.9 °F 67% 30.10 in 10.0 mi NW 12.7 mph - N/A   Clear